Grand Canyon, AZ

4:51 PM MST on February 17, 2018 (GMT -0700)
Grand Canyon National Park

Weather History for KGCN - November, 2013

Change the Weather History Date:

Thursday, November 14, 2013

  Actual Average Record
Temperature  
Mean Temperature 38 °F -  
Max Temperature 59 °F 50 °F 68 °F (2016)
Min Temperature 18 °F 20 °F -2 °F (1985)
Degree Days  
Heating Degree Days 26    
Moisture  
Dew Point 16 °F    
Average Humidity 50    
Maximum Humidity 84    
Minimum Humidity 18    
Precipitation  
Precipitation 0.00 in - - ()
Sea Level Pressure  
Sea Level Pressure 30.07 in    
Wind  
Wind Speed 1 mph (West)    
Max Wind Speed 10 mph    
Max Gust Speed 16 mph    
Visibility 10 miles    
Events      
Averages and records for this station are not official NWS values.
T = Trace of Precipitation, MM = Missing Value Source: NWS Daily Summary

Daily Weather History Graph

Daily Weather History Graph

Search for Another Location

Airport or City:

Trip Planner

Search our weather history database for the weather conditions in past years. The results will help you decide how hot, cold, wet, or windy it might be!

Date:

Astronomy

Nov. 14, 2013 Rise Set
Actual Time 7:04 AM MST 5:21 PM MST
Civil Twilight 6:37 AM MST 5:48 PM MST
Nautical Twilight 6:06 AM MST 6:19 PM MST
Astronomical Twilight 5:35 AM MST 6:49 PM MST
Moon 3:40 PM MST (11/14) 4:08 AM MST (11/14)
Length of Visible Light 11h 11m
Length of Day
10h 17m
Waxing Gibbous, 92% of the Moon is Illuminated
Nov 14
Waxing Gibbous
Nov 17
Full
Nov 25
Last Quarter
Dec 2
New
Dec 9
First Quarter

Hourly Weather History & Observations

Time (MST) Temp. Dew Point Humidity Pressure Visibility Wind Dir Wind Speed Gust Speed Precip Events Conditions
12:54 AM 25.0 °F 17.1 °F 72% 30.12 in 10.0 mi Calm Calm - N/A   Clear
1:54 AM 25.0 °F 17.1 °F 72% 30.10 in 10.0 mi Calm Calm - N/A   Clear
2:54 AM 21.9 °F 16.0 °F 78% 30.12 in 10.0 mi Calm Calm - N/A   Clear
3:54 AM 21.9 °F 16.0 °F 78% 30.11 in 10.0 mi Calm Calm - N/A   Clear
4:54 AM 21.9 °F 15.1 °F 75% 30.13 in 10.0 mi Calm Calm - N/A   Clear
5:54 AM 21.0 °F 15.1 °F 78% 30.17 in 10.0 mi Calm Calm - N/A   Clear
6:54 AM 18.0 °F 14.0 °F 84% 30.21 in 10.0 mi Calm Calm - N/A   Clear
7:54 AM 25.0 °F 17.1 °F 72% 30.21 in 10.0 mi Calm Calm - N/A   Clear
8:54 AM 42.1 °F 21.9 °F 45% 30.17 in 10.0 mi Calm Calm - N/A   Clear
9:54 AM 52.0 °F 21.9 °F 31% 30.14 in 10.0 mi Calm Calm - N/A   Clear
10:54 AM 55.9 °F 21.0 °F 26% 30.12 in 10.0 mi Variable 3.5 mph - N/A   Clear
11:54 AM 57.9 °F 19.0 °F 22% 30.09 in 10.0 mi North 8.1 mph - N/A   Clear
12:54 PM 57.9 °F 16.0 °F 19% 30.06 in 10.0 mi Calm Calm - N/A   Clear
1:54 PM 59.0 °F 16.0 °F 19% 30.03 in 10.0 mi Variable 4.6 mph - N/A   Clear
2:54 PM 59.0 °F 15.1 °F 18% 30.02 in 10.0 mi Variable 5.8 mph - N/A   Clear
3:54 PM 57.0 °F 15.1 °F 19% 30.02 in 10.0 mi WSW 10.4 mph 16.1 mph N/A   Clear
4:54 PM 52.0 °F 18.0 °F 26% 30.01 in 10.0 mi SW 3.5 mph - N/A   Clear
5:54 PM 35.1 °F 16.0 °F 46% 30.06 in 10.0 mi Calm Calm - N/A   Clear
6:54 PM 30.0 °F 14.0 °F 51% 30.09 in 10.0 mi Calm Calm - N/A   Clear
7:54 PM 28.9 °F 12.9 °F 51% 30.06 in 10.0 mi Calm Calm - N/A   Clear
8:54 PM 28.0 °F 12.9 °F 53% 29.97 in 10.0 mi Calm Calm - N/A   Clear
9:54 PM 26.1 °F 12.0 °F 55% 29.93 in 10.0 mi Calm Calm - N/A   Clear
10:54 PM 27.0 °F 12.9 °F 56% 29.88 in 10.0 mi Calm Calm - N/A   Clear
11:54 PM 25.0 °F 12.9 °F 60% 29.85 in 10.0 mi Calm Calm - N/A   Clear